Starlink 36163

operational
NORAD ID: 67008 Int'l Des: 2025-293 Owner: SPXS Country: US Constellation: starlink
LEOCIRCULAR

Über Starlink 36163

Beschreibung wird geladen...

Live-Position

3D-Globus wird geladen...

Nächste Überflüge

Höhenverlauf

Altitude vs Time

uPlot chart will show altitude changes over time

Zweizeiliger Elementsatz

1 67008C 25293F 25346.10673611 -.00410390 00000+0 -57934-3 0 3462
2 67008 69.9975 325.9186 0004186 271.4884 211.7584 16.05873932 18
Epoch: 12. Dez. 2025 • Age: 54 hours

Aktueller Status

Höhe 281.6 km
Geschwindigkeit 7.74 km/s
Subsatellitenpunkt -55.36°S, 112.54°E
Startdatum 10. Dez. 2025
Alter 3 days
Typ internet

Technische Details

Klassifizierung Payload
Masse 575.00 kg
Trockenmasse 530.00 kg
Gesamtmasse 575.00 kg
Länge 0.30 m
Durchmesser 4.10 m
Spannweite 29.00 m
Form Box + pan
Hersteller SPXS
Bus-Typ Starlink V2MO
Phasenstatus In Orbit
Besitzer/Staat SPXS/US

Große Konstellationen

Loading constellations...